カタログに戻る

METEOR 2-8 DEB

運用中PO
NORAD 36325·DEBRIS·🇷🇺 Russia

打ち上げ Mar 25, 1982 から Plesetsk Cosmodrome

Loading…

次のパス (今後24時間)

TLE

最新Source: Space-Track

元期: Sep 14, 2026, 10:08 UTC

1 36325U 82025K   26257.42272596  .00000881  00000-0  40122-3 0  9994
2 36325  82.5127 152.7697 0018714  24.9483 335.2597 14.20643583664875

AllMySatでMETEOR 2-8 DEBをリアルタイム追跡

Download on the App Store